Eastsound, WA
on Wednesday, January 30, 2013

Wednesday
Previous Day Next Day
Daily Summary
 ActualAverage (KBLI)Record (KBLI)
Temperature
Mean Temperature °F / °C 40°F / 4°C  
Max Temperature 44°F / 7°C 47°F / 8°C 60°F / 15°C (1992)
Min Temperature 42°F / 6°C 33°F / 1°C 9°F / -12°C (1950)
Degree Days
Heating Degree Days 22 25  
Month to date heating degree days 773  
Cooling Degree Days 0 0  
Month to date cooling degree days 0  
Year to date cooling degree days 0  
Moisture
Dew Point 43°F / 6°C   
Average Humidity 99    
Maximum Humidity 100    
Minimum Humidity 93    
Precipitation
Precipitation 0.00 in / 0.00 cm 0.14 in / 3.56 cm 1.74 in / 4.42 cm (1971)
Month to date precipitation 4.53  
Year to date precipitation 4.53  
Wind
Wind Speed 6 mph / 10 km/h   
Max Wind Speed 13 mph / 21 km/h   
Max Gust Speed 16 mph / 26 km/h   
Visibility 5 miles / 7 kilometers   
Events Fog , Rain   

Key: T is trace of precipitation, MM is missing value
Source: NWS Daily Summary
Time(PST)TemperatureDew PointHumidity Pressure Visibility Wind DirectionWind SpeedGust SpeedPrecipitationEvents Conditions
12:15 AM 44.6°F / 7.0°C 42.8°F / 6.0°C 93% 30.28 in / 1025.3 hPa 10.0 miles / 16.1 kilometers South 9.2 mph / 14.8 km/h - N/A   Overcast
12:35 AM 44.6°F / 7.0°C 42.8°F / 6.0°C 93% 30.29 in / 1025.6 hPa 10.0 miles / 16.1 kilometers South 8.1 mph / 13.0 km/h - N/A   Overcast
12:55 AM 44.6°F / 7.0°C 42.8°F / 6.0°C 93% 30.28 in / 1025.3 hPa 9.0 miles / 14.5 kilometers South 10.4 mph / 16.7 km/h - N/A   Overcast
1:15 AM 44.6°F / 7.0°C 42.8°F / 6.0°C 93% 30.29 in / 1025.6 hPa 4.0 miles / 6.4 kilometers South 9.2 mph / 14.8 km/h - N/A   Overcast
1:35 AM 44.6°F / 7.0°C 44.6°F / 7.0°C 100% 30.29 in / 1025.6 hPa 6.0 miles / 9.7 kilometers South 10.4 mph / 16.7 km/h - N/A   Overcast
1:55 AM 44.6°F / 7.0°C 44.6°F / 7.0°C 100% 30.29 in / 1025.6 hPa 6.0 miles / 9.7 kilometers SSW 12.7 mph / 20.4 km/h 16.1 mph / 25.9 km/h N/A   Overcast
2:15 AM 44.6°F / 7.0°C 44.6°F / 7.0°C 100% 30.29 in / 1025.6 hPa 9.0 miles / 14.5 kilometers South 10.4 mph / 16.7 km/h - N/A   Overcast
2:35 AM 44.6°F / 7.0°C 44.6°F / 7.0°C 100% 30.30 in / 1026.0 hPa 9.0 miles / 14.5 kilometers South 10.4 mph / 16.7 km/h - N/A   Overcast
2:55 AM 44.6°F / 7.0°C 44.6°F / 7.0°C 100% 30.29 in / 1025.6 hPa 10.0 miles / 16.1 kilometers SSW 11.5 mph / 18.5 km/h - N/A   Overcast
3:15 AM 44.6°F / 7.0°C 44.6°F / 7.0°C 100% 30.29 in / 1025.6 hPa 10.0 miles / 16.1 kilometers South 11.5 mph / 18.5 km/h 16.1 mph / 25.9 km/h N/A   Overcast
3:35 AM 44.6°F / 7.0°C 44.6°F / 7.0°C 100% 30.30 in / 1026.0 hPa 10.0 miles / 16.1 kilometers South 10.4 mph / 16.7 km/h - N/A   Overcast
3:55 AM 44.6°F / 7.0°C 44.6°F / 7.0°C 100% 30.30 in / 1026.0 hPa 8.0 miles / 12.9 kilometers South 8.1 mph / 13.0 km/h - N/A   Overcast
4:15 AM 44.6°F / 7.0°C 44.6°F / 7.0°C 100% 30.30 in / 1026.0 hPa 10.0 miles / 16.1 kilometers South 10.4 mph / 16.7 km/h - N/A   Overcast
4:35 AM 44.6°F / 7.0°C 44.6°F / 7.0°C 100% 30.30 in / 1026.0 hPa 10.0 miles / 16.1 kilometers South 9.2 mph / 14.8 km/h - N/A   Overcast
4:55 AM 44.6°F / 7.0°C 44.6°F / 7.0°C 100% 30.30 in / 1026.0 hPa 10.0 miles / 16.1 kilometers South 5.8 mph / 9.3 km/h - N/A   Overcast
5:15 AM 44.6°F / 7.0°C 42.8°F / 6.0°C 93% 30.30 in / 1026.0 hPa 10.0 miles / 16.1 kilometers South 8.1 mph / 13.0 km/h - N/A   Overcast
5:35 AM 44.6°F / 7.0°C 42.8°F / 6.0°C 93% 30.30 in / 1026.0 hPa 10.0 miles / 16.1 kilometers South 10.4 mph / 16.7 km/h - N/A   Overcast
5:55 AM 44.6°F / 7.0°C 42.8°F / 6.0°C 93% 30.30 in / 1026.0 hPa 10.0 miles / 16.1 kilometers South 10.4 mph / 16.7 km/h - N/A   Overcast
6:15 AM 44.6°F / 7.0°C 42.8°F / 6.0°C 93% 30.30 in / 1026.0 hPa 10.0 miles / 16.1 kilometers South 9.2 mph / 14.8 km/h - N/A   Overcast
6:35 AM 44.6°F / 7.0°C 42.8°F / 6.0°C 93% 30.30 in / 1026.0 hPa 10.0 miles / 16.1 kilometers South 9.2 mph / 14.8 km/h - N/A   Overcast
6:55 AM 44.6°F / 7.0°C 44.6°F / 7.0°C 100% 30.31 in / 1026.3 hPa 10.0 miles / 16.1 kilometers South 8.1 mph / 13.0 km/h - N/A   Overcast
7:15 AM 44.6°F / 7.0°C 44.6°F / 7.0°C 100% 30.31 in / 1026.3 hPa 10.0 miles / 16.1 kilometers South 8.1 mph / 13.0 km/h - N/A   Overcast
7:35 AM 44.6°F / 7.0°C 44.6°F / 7.0°C 100% 30.31 in / 1026.3 hPa 10.0 miles / 16.1 kilometers SSW 8.1 mph / 13.0 km/h - N/A   Overcast
7:55 AM 44.6°F / 7.0°C 44.6°F / 7.0°C 100% 30.31 in / 1026.3 hPa 10.0 miles / 16.1 kilometers South 8.1 mph / 13.0 km/h - N/A   Overcast
8:15 AM 44.6°F / 7.0°C 44.6°F / 7.0°C 100% 30.32 in / 1026.6 hPa 10.0 miles / 16.1 kilometers South 6.9 mph / 11.1 km/h - N/A   Overcast
8:35 AM 44.6°F / 7.0°C 44.6°F / 7.0°C 100% 30.32 in / 1026.6 hPa 10.0 miles / 16.1 kilometers South 5.8 mph / 9.3 km/h - N/A   Overcast
8:55 AM 44.6°F / 7.0°C 44.6°F / 7.0°C 100% 30.33 in / 1027.0 hPa 10.0 miles / 16.1 kilometers SSW 5.8 mph / 9.3 km/h - N/A   Overcast
9:15 AM 44.6°F / 7.0°C 44.6°F / 7.0°C 100% 30.32 in / 1026.6 hPa 10.0 miles / 16.1 kilometers SSW 6.9 mph / 11.1 km/h - N/A   Overcast
9:35 AM 44.6°F / 7.0°C 44.6°F / 7.0°C 100% 30.33 in / 1027.0 hPa 10.0 miles / 16.1 kilometers SSW 5.8 mph / 9.3 km/h - N/A   Overcast
9:55 AM 44.6°F / 7.0°C 44.6°F / 7.0°C 100% 30.33 in / 1027.0 hPa 10.0 miles / 16.1 kilometers SSW 4.6 mph / 7.4 km/h - N/A   Overcast
10:15 AM 44.6°F / 7.0°C 44.6°F / 7.0°C 100% 30.34 in / 1027.3 hPa 7.0 miles / 11.3 kilometers NE 3.5 mph / 5.6 km/h - N/A   Overcast
10:35 AM 44.6°F / 7.0°C 44.6°F / 7.0°C 100% 30.34 in / 1027.3 hPa 5.0 miles / 8.0 kilometers Calm Calm - N/A   Overcast
10:55 AM 44.6°F / 7.0°C 44.6°F / 7.0°C 100% 30.35 in / 1027.7 hPa 2.0 miles / 3.2 kilometers North 8.1 mph / 13.0 km/h - N/A   Overcast
11:15 AM 42.8°F / 6.0°C 42.8°F / 6.0°C 100% 30.35 in / 1027.7 hPa 0.5 miles / 0.8 kilometers NNW 4.6 mph / 7.4 km/h - N/A Fog Fog
11:35 AM 42.8°F / 6.0°C 42.8°F / 6.0°C 100% 30.35 in / 1027.7 hPa 0.5 miles / 0.8 kilometers Calm Calm - N/A Fog Fog
11:55 AM 44.6°F / 7.0°C 44.6°F / 7.0°C 100% 30.35 in / 1027.7 hPa 0.2 miles / 0.4 kilometers NNW 3.5 mph / 5.6 km/h - N/A Fog Fog
12:15 PM 42.8°F / 6.0°C 42.8°F / 6.0°C 100% 30.35 in / 1027.7 hPa 0.2 miles / 0.4 kilometers NNW 3.5 mph / 5.6 km/h - N/A Fog Fog
12:35 PM 42.8°F / 6.0°C 42.8°F / 6.0°C 100% 30.35 in / 1027.7 hPa 0.2 miles / 0.4 kilometers Calm Calm - N/A Fog Fog
12:55 PM 42.8°F / 6.0°C 42.8°F / 6.0°C 100% 30.35 in / 1027.7 hPa 0.2 miles / 0.4 kilometers North 4.6 mph / 7.4 km/h - N/A Fog Fog
1:15 PM 42.8°F / 6.0°C 42.8°F / 6.0°C 100% 30.35 in / 1027.7 hPa 0.2 miles / 0.4 kilometers North 4.6 mph / 7.4 km/h - N/A Fog Fog
1:35 PM 42.8°F / 6.0°C 42.8°F / 6.0°C 100% 30.35 in / 1027.7 hPa 0.8 miles / 1.2 kilometers North 3.5 mph / 5.6 km/h - N/A   Overcast
1:55 PM 42.8°F / 6.0°C 42.8°F / 6.0°C 100% 30.35 in / 1027.7 hPa 0.2 miles / 0.4 kilometers North 3.5 mph / 5.6 km/h - N/A Fog Fog
2:15 PM 42.8°F / 6.0°C 42.8°F / 6.0°C 100% 30.35 in / 1027.7 hPa 0.2 miles / 0.4 kilometers Calm Calm - N/A Fog Fog
2:35 PM 42.8°F / 6.0°C 42.8°F / 6.0°C 100% 30.35 in / 1027.7 hPa 0.2 miles / 0.4 kilometers Calm Calm - N/A Fog Fog
2:55 PM 42.8°F / 6.0°C 42.8°F / 6.0°C 100% 30.35 in / 1027.7 hPa 0.2 miles / 0.4 kilometers Calm Calm - N/A Fog Fog
3:15 PM 42.8°F / 6.0°C 42.8°F / 6.0°C 100% 30.35 in / 1027.7 hPa 0.2 miles / 0.4 kilometers Calm Calm - N/A Fog Fog
3:35 PM 42.8°F / 6.0°C 42.8°F / 6.0°C 100% 30.35 in / 1027.7 hPa 0.2 miles / 0.4 kilometers Calm Calm - N/A Fog Fog
3:55 PM 42.8°F / 6.0°C 42.8°F / 6.0°C 100% 30.35 in / 1027.7 hPa 0.2 miles / 0.4 kilometers Calm Calm - N/A Fog Fog
4:15 PM 42.8°F / 6.0°C 42.8°F / 6.0°C 100% 30.35 in / 1027.7 hPa 0.2 miles / 0.4 kilometers Calm Calm - N/A Fog Fog
4:35 PM 42.8°F / 6.0°C 42.8°F / 6.0°C 100% 30.35 in / 1027.7 hPa 0.2 miles / 0.4 kilometers Calm Calm - N/A Fog Fog
4:55 PM 42.8°F / 6.0°C 42.8°F / 6.0°C 100% 30.35 in / 1027.7 hPa 0.2 miles / 0.4 kilometers Calm Calm - N/A Fog Fog
5:15 PM 42.8°F / 6.0°C 42.8°F / 6.0°C 100% 30.35 in / 1027.7 hPa 0.2 miles / 0.4 kilometers Calm Calm - N/A Fog Fog
5:35 PM 42.8°F / 6.0°C 42.8°F / 6.0°C 100% 30.35 in / 1027.7 hPa 0.2 miles / 0.4 kilometers Calm Calm - N/A Fog Fog
5:55 PM 42.8°F / 6.0°C 42.8°F / 6.0°C 100% 30.35 in / 1027.7 hPa 0.5 miles / 0.8 kilometers Calm Calm - N/A Fog Fog
6:15 PM 42.8°F / 6.0°C 42.8°F / 6.0°C 100% 30.35 in / 1027.7 hPa 0.8 miles / 1.2 kilometers NNW 3.5 mph / 5.6 km/h - N/A   Overcast
6:35 PM 42.8°F / 6.0°C 42.8°F / 6.0°C 100% 30.34 in / 1027.3 hPa 2.0 miles / 3.2 kilometers Calm Calm - N/A   Overcast
6:55 PM 42.8°F / 6.0°C 42.8°F / 6.0°C 100% 30.34 in / 1027.3 hPa 4.0 miles / 6.4 kilometers Calm Calm - N/A   Overcast
7:15 PM 42.8°F / 6.0°C 42.8°F / 6.0°C 100% 30.34 in / 1027.3 hPa 5.0 miles / 8.0 kilometers Calm Calm - N/A   Overcast
7:35 PM 42.8°F / 6.0°C 42.8°F / 6.0°C 100% 30.34 in / 1027.3 hPa 1.8 miles / 2.8 kilometers Calm Calm - N/A   Overcast
7:55 PM 42.8°F / 6.0°C 42.8°F / 6.0°C 100% 30.34 in / 1027.3 hPa 0.8 miles / 1.2 kilometers Calm Calm - N/A   Overcast
8:15 PM 42.8°F / 6.0°C 42.8°F / 6.0°C 100% 30.35 in / 1027.7 hPa 0.8 miles / 1.2 kilometers Calm Calm - N/A   Overcast
8:35 PM 42.8°F / 6.0°C 42.8°F / 6.0°C 100% 30.34 in / 1027.3 hPa 2.0 miles / 3.2 kilometers Calm Calm - N/A   Overcast
9:15 PM 42.8°F / 6.0°C 42.8°F / 6.0°C 100% 30.34 in / 1027.3 hPa 1.8 miles / 2.8 kilometers Calm Calm - N/A   Overcast
9:35 PM 42.8°F / 6.0°C 42.8°F / 6.0°C 100% 30.35 in / 1027.7 hPa 1.2 miles / 2.0 kilometers Calm Calm - N/A   Overcast
9:55 PM 42.8°F / 6.0°C 42.8°F / 6.0°C 100% 30.35 in / 1027.7 hPa 0.5 miles / 0.8 kilometers Calm Calm - N/A Fog Fog
10:15 PM 42.8°F / 6.0°C 42.8°F / 6.0°C 100% 30.34 in / 1027.3 hPa 0.5 miles / 0.8 kilometers Calm Calm - N/A Rain Light Rain
10:35 PM 42.8°F / 6.0°C 42.8°F / 6.0°C 100% 30.34 in / 1027.3 hPa 0.5 miles / 0.8 kilometers Calm Calm - N/A Fog Fog
10:55 PM 42.8°F / 6.0°C 42.8°F / 6.0°C 100% 30.34 in / 1027.3 hPa 0.5 miles / 0.8 kilometers Calm Calm - N/A Fog Fog
11:15 PM 42.8°F / 6.0°C 42.8°F / 6.0°C 100% 30.34 in / 1027.3 hPa 0.5 miles / 0.8 kilometers Calm Calm - N/A Fog Fog
11:35 PM 42.8°F / 6.0°C 42.8°F / 6.0°C 100% 30.34 in / 1027.3 hPa 1.0 miles / 1.6 kilometers Calm Calm - N/A   Overcast
11:55 PM 42.8°F / 6.0°C 42.8°F / 6.0°C 100% 30.34 in / 1027.3 hPa 1.5 miles / 2.4 kilometers Calm Calm - N/A   Overcast
Moon Phase
Jan. 30 Feb. 03 Feb. 10 Feb. 17 Feb. 25
Sunrise:07:43 AM (PST) Moon Rise:09:37 PM (PST)1/30
Sunset:05:07 PM (PST) Moon Set:08:51 AM (PST)1/30

Copyright © 2014 The Weather Underground, Inc.